Regional Weather Roundup
Issued by NWS Sterling, VA

Home | Current Version | Previous Version | Graphics & Text | Print | Product List | Glossary On
Versions: 1 2 3 4 5 6 7 8 9 10 11 12 13 14 15 16 17 18 19 20 21 22 23 24 25 26 27 28 29 30 31 32 33 34 35 36 37 38 39 40 41 42 43 44 45 46 47 48 49 50
000
ASUS41 KLWX 220110
RWRLWX

REGIONAL WEATHER ROUNDUP
NATIONAL WEATHER SERVICE BALTIMORE MD/WASHINGTON DC
900 PM EDT THU AUG 21 2014

Note: "FAIR" indicates few or no clouds below 12,000 feet
with no significant weather and/or obstructions to visibility.
 TC=TEMPERATURE CELSIUS

 * =Non NWS site. Station does not report precipitation (e.g. rain,
    snow, etc.), thunder, or fog.

DCZ001-MDZ009-015-VAZ040>042-051-053>054-220200-
WASHINGTON METRO
  /KDAA//-FT BELVOIR

CITY           SKY/WX    TMP DP  RH WIND       PRES   REMARKS
WASHINGTON NAT LGT RAIN  79  70  74 W6        29.99S
DULLES         CLOUDY    72  70  94 SW3       30.00R
ANDREWS AFB    CLOUDY    76  73  90 NW3       29.99S
QUANTICO       CLOUDY    79  75  87 NW5       29.99S
COLLEGE PARK*  CLOUDY    77  73  88 CALM      29.98S
LEESBURG*      CLOUDY    72  72 100 CALM      30.00F
MANASSAS*      CLOUDY    75  75 100 CALM      29.99F
GAITHERSBURG*  CLOUDY    73  70  88 W3        30.03S

$$

MDZ006>007-011-014-220200-
BALTIMORE METRO

CITY           SKY/WX    TMP DP  RH WIND       PRES   REMARKS
BWI AIRPORT    CLOUDY    77  69  76 CALM      29.97F
MD SCIENCE CTR   N/A     81  68  64 MISG      29.97F
MARTIN STATE   PTCLDY    73  73 100 CALM      29.99S FOG
ANNAPOLIS      CLOUDY    80  71  74 CALM      29.97F
FORT MEADE*    CLOUDY    72  70  94 CALM      30.00S

$$

MDZ012-015-019>023-220200-
MARYLAND EASTERN SHORE

CITY           SKY/WX    TMP DP  RH WIND       PRES   REMARKS
OCEAN CITY     CLOUDY    76  73  91 S3        30.01S
SALISBURY      CLOUDY    77  73  87 SE5       30.00S
BAY BRIDGE AP*   N/A     79  73  83 SE3       29.98S
CAMBRIDGE*     CLOUDY    79  73  83 SE6       29.99S
EASTON*        CLOUDY    79  77  94 CALM      30.02S

$$

MDZ017>025-220200-
SOUTHERN MARYLAND

CITY           SKY/WX    TMP DP  RH WIND       PRES   REMARKS
PATUXENT RIVER CLOUDY    78  72  81 S6        29.99R
ST INIGOES     CLOUDY    77  69  76 SE5       29.99R
LEONARDTOWN*   CLOUDY    77  70  78 CALM      30.01S

$$

MDZ003>005-220200-
NORTH CENTRAL MARYLAND

CITY           SKY/WX    TMP DP  RH WIND       PRES   REMARKS
FREDERICK*     CLOUDY    72  72 100 CALM      30.02S
HAGERSTOWN APT CLOUDY    71  67  87 NW6       30.00R
WESTMINSTER*   CLOUDY    73  68  83 CALM      30.01F

$$

MDZ501>502-220200-
WESTERN MARYLAND

CITY           SKY/WX    TMP DP  RH WIND       PRES   REMARKS
OAKLAND*       CLOUDY    63 N/A N/A SW8       30.13R
CUMBERLAND*    CLOUDY    73  66  78 CALM      30.06S

$$

VAZ025>031-220200-
SHENANDOAH VALLEY

CITY           SKY/WX    TMP DP  RH WIND       PRES   REMARKS
WINCHESTER*    CLOUDY    77  64  65 W5        30.02R
STAUNTON*      CLOUDY    75  67  76 SE5       30.08R

$$

WVZ021-048>050-054>055-220200-
EASTERN WEST VIRGINIA PANHANDLE

CITY           SKY/WX    TMP DP  RH WIND       PRES   REMARKS
MARTINSBURG    CLOUDY    77  64  64 SW5       30.01R
PETERSBURG*    NOT AVBL

$$

VAZ036>039-050-220200-
CENTRAL FOOTHILLS

CITY           SKY/WX    TMP DP  RH WIND       PRES   REMARKS
CHARLOTTESVILL CLOUDY    77  70  79 VRB3      30.02R
ORANGE*        CLOUDY    77  72  83 CALM      30.02S

$$

VAZ055>057-220200-
NORTH AND CENTRAL PIEDMONT

CITY           SKY/WX    TMP DP  RH WIND       PRES   REMARKS
FREDERICKSBRG* CLOUDY    80  75  84 CALM      29.98S
STAFFORD*      DRIZZLE   76  76 100 CALM      30.03S

$$

NCZ024-NYZ072-PAZ021-071-VAZ022-071-220200-
OTHER REGIONAL OBSERVATIONS

CITY           SKY/WX    TMP DP  RH WIND       PRES   REMARKS
NEW YORK CITY  CLOUDY    73  62  68 S7        30.05F
PHILADELPHIA   CLOUDY    76  67  73 SE12      30.01R
PITTSBURGH     MOCLDY    72  67  84 SW6       30.03S
ROANOKE        MOCLDY    72  67  84 CALM      30.10F
RICHMOND       CLOUDY    81  72  74 S3        29.99F
RALEIGH        MOCLDY    78  70  76 CALM      30.06R

$$

ANZ530>537-220200-
MARINE OBSERVATIONS

STATION/POSITION TIME  TEMP    WIND        PRES
                       AIR SEA DIR/SP/G
                 (UTC) (F)     (DEG/KT/KT) (MB)
THOMAS PT LIGHT  0100   79 79  210/  2/  3 1015.6F
BALT KEY BRIDGE  0100   80     250/  5/  5 1014.8F
COVE POINT       0100   79     200/  7/  8 1015.3S
LEWISETTA        0100   75 81  180/  5/  6 1015.4S
SOLOMONS ISLAND  0100      82                N/A
PINEY POINT      0100          190/ 11/ 12   N/A

$$



USA.gov is the U.S. government's official web portal to all federal, state and local government web resources and services.